EW2672 Weather Reports


Display with metric or nautical units.
time (UTC)temp
F
wind
direction
speed
MPH
gust
MPH
rain 1hr
in
rain 24hr
in
rain mn
in
humidity
%
barometer
mb
20260503184220 78 188 1.0 10.0 0.00 0.00 0.00 41 1021.4
20260503183716 78 210 1.0 6.0 0.00 0.00 0.00 39 1021.4
20260503183215 78 200 1.0 6.0 0.00 0.00 0.00 40 1021.5
20260503182712 78 0.0 5.0 0.00 0.00 0.00 43 1021.6
20260503182210 77 200 1.0 10.0 0.00 0.00 0.00 40 1021.7
20260503181706 77 198 2.0 10.0 0.00 0.00 0.00 40 1021.7
20260503181205 78 141 1.0 5.0 0.00 0.00 0.00 42 1021.8
20260503180702 77 0.0 6.0 0.00 0.00 0.00 39 1022.0
20260503180200 77 174 1.0 7.0 0.00 0.00 0.00 43 1022.1
20260503175656 77 192 2.0 7.0 0.00 0.01 0.00 42 1022.2
20260503175155 77 188 1.0 8.0 0.00 0.01 0.00 41 1022.4
20260503174652 76 188 2.0 8.0 0.00 0.01 0.00 39 1022.4
20260503174150 76 208 2.0 6.0 0.00 0.01 0.00 40 1022.4
20260503173646 76 209 1.0 7.0 0.00 0.01 0.00 39 1022.5
20260503173145 77 206 1.0 7.0 0.00 0.01 0.00 40 1022.5
20260503172642 76 1.0 5.0 0.00 0.01 0.00 45 1022.5
20260503172139 76 1.0 5.0 0.00 0.01 0.00 44 1022.6
20260503171636 75 0.0 5.0 0.00 0.01 0.00 44 1022.7
20260503171134 75 1.0 5.0 0.00 0.01 0.00 43 1022.8
20260503170632 75 212 1.0 5.0 0.00 0.01 0.00 44 1022.9
20260503170129 75 206 1.0 5.0 0.00 0.01 0.00 41 1023.0
20260503150530 70 0.0 3.0 0.00 0.01 0.00 56 1023.4
20260503130933 57 0.0 0.0 0.00 0.01 0.00 79 1023.0
20260503130430 56 0.0 0.0 0.00 0.01 0.00 79 1022.9
20260503110328 53 0.0 0.0 0.00 0.01 0.00 85 1021.7
20260503100258 52 0.0 0.0 0.00 0.01 0.00 86 1021.5
20260503090227 53 0.0 0.0 0.00 0.01 0.00 86 1021.5
20260503081201 54 0.0 0.0 0.00 0.02 0.00 85 1021.5
20260503080702 54 0.0 0.0 0.00 0.02 0.00 85 1021.5
20260503080157 54 0.0 0.0 0.00 0.02 0.00 85 1021.5
20260503072640 54 0.0 0.0 0.00 0.02 0.00 85 1021.8
20260503072137 54 0.0 0.0 0.00 0.02 0.00 85 1021.8
20260503071635 54 0.0 0.0 0.00 0.02 0.00 85 1021.8
20260503071131 54 0.0 0.0 0.00 0.02 0.00 85 1021.8
20260503070630 54 0.0 0.0 0.00 0.02 0.00 84 1021.9
20260503070127 54 0.0 0.0 0.00 0.02 0.00 84 1022.0
20260503055051 55 0.0 0.0 0.00 0.02 0.00 82 1022.0
20260503054549 56 0.0 0.0 0.00 0.02 0.00 83 1022.0
20260503054045 56 0.0 0.0 0.00 0.02 0.00 82 1022.1
20260503053544 56 0.0 0.0 0.00 0.02 0.00 82 1022.1
20260503053041 56 0.0 0.0 0.00 0.02 0.00 82 1022.2
20260503052539 56 0.0 0.0 0.00 0.02 0.00 82 1022.3
20260503052035 56 0.0 0.0 0.00 0.02 0.00 82 1022.3
20260503051534 56 0.0 0.0 0.00 0.02 0.00 81 1022.2
20260503051031 56 0.0 0.0 0.00 0.02 0.00 81 1022.1
20260503050529 56 0.0 0.0 0.00 0.02 0.00 82 1022.1
20260503050027 56 0.0 0.0 0.00 0.02 0.00 82 1022.1
20260503045524 56 0.0 0.0 0.00 0.02 0.02 82 1022.0
20260503045021 56 0.0 0.0 0.00 0.02 0.02 83 1022.0
20260503044519 56 0.0 0.0 0.00 0.02 0.02 83 1022.0
20260503044015 57 0.0 0.0 0.00 0.02 0.02 82 1022.0
20260503043514 57 0.0 0.0 0.00 0.02 0.02 83 1022.1
20260503043011 57 0.0 0.0 0.00 0.02 0.02 82 1022.0
20260503042508 57 0.0 0.0 0.00 0.02 0.02 82 1021.9
20260503042005 57 0.0 0.0 0.00 0.02 0.02 82 1022.0
20260503041503 57 0.0 0.0 0.00 0.02 0.02 81 1022.0
20260503041001 57 0.0 0.0 0.00 0.02 0.02 81 1021.9
20260503040458 57 0.0 0.0 0.00 0.02 0.02 81 1021.9
20260503035955 58 0.0 0.0 0.00 0.02 0.02 81 1021.9
20260503035453 58 0.0 0.0 0.00 0.02 0.02 81 1021.9
20260503034951 58 0.0 0.0 0.00 0.02 0.02 80 1021.9
20260503034448 58 0.0 0.0 0.00 0.02 0.02 80 1021.9
20260503033945 58 0.0 0.0 0.00 0.02 0.02 80 1021.8
20260503033443 58 0.0 0.0 0.00 0.02 0.02 79 1021.7
20260503032941 59 0.0 0.0 0.00 0.02 0.02 79 1021.7
20260503032438 59 0.0 0.0 0.00 0.02 0.02 78 1021.7
20260503031929 59 0.0 0.0 0.00 0.02 0.02 78 1021.7
20260503031427 59 0.0 0.0 0.00 0.02 0.02 77 1021.6
20260503030925 59 0.0 0.0 0.00 0.02 0.02 76 1021.5
20260503030422 60 0.0 0.0 0.00 0.02 0.02 75 1021.5
20260503025919 60 0.0 0.0 0.00 0.02 0.02 75 1021.6
20260503025417 60 0.0 0.0 0.00 0.02 0.02 74 1021.5
20260503024915 61 0.0 0.0 0.00 0.02 0.02 74 1021.5
20260503024411 61 0.0 0.0 0.00 0.02 0.02 72 1021.4
20260503023909 61 0.0 0.0 0.00 0.02 0.02 71 1021.3
20260503023405 61 0.0 0.0 0.00 0.02 0.02 68 1021.1
20260503022903 61 0.0 0.0 0.00 0.02 0.02 68 1021.0
20260503022401 62 0.0 0.0 0.00 0.02 0.02 67 1020.9
20260503021859 62 0.0 0.0 0.00 0.02 0.02 67 1020.9
20260503021355 62 0.0 0.0 0.00 0.02 0.02 67 1020.8
20260503020853 62 0.0 0.0 0.00 0.02 0.02 66 1020.8
20260503020351 62 0.0 0.0 0.00 0.02 0.02 65 1020.9
20260503015849 63 0.0 0.0 0.00 0.02 0.02 64 1020.8
20260503015345 63 0.0 0.0 0.00 0.02 0.02 64 1020.8
20260503014843 63 0.0 0.0 0.00 0.02 0.02 63 1020.7
20260503014341 64 0.0 0.0 0.00 0.02 0.02 62 1020.6
20260503013839 64 0.0 0.0 0.00 0.02 0.02 61 1020.7
20260503013335 65 0.0 0.0 0.00 0.02 0.02 60 1020.7
20260503012833 65 0.0 0.0 0.00 0.02 0.02 57 1020.7
20260503012331 66 0.0 0.0 0.00 0.02 0.02 56 1020.6
20260503011829 66 0.0 0.0 0.00 0.02 0.02 56 1020.5
20260503011325 67 0.0 0.0 0.00 0.02 0.02 55 1020.4
20260503010823 68 0.0 0.0 0.00 0.02 0.02 52 1020.4
20260503010320 68 0.0 0.0 0.00 0.02 0.02 51 1020.4
20260503005819 69 0.0 0.0 0.00 0.02 0.02 52 1020.4
20260503005314 70 0.0 0.0 0.00 0.02 0.02 49 1020.3
20260503004813 71 0.0 0.0 0.00 0.02 0.02 48 1020.3
20260503004310 71 0.0 0.0 0.00 0.02 0.02 47 1020.2
20260503003809 72 0.0 0.0 0.00 0.02 0.02 47 1020.2
20260503003304 73 0.0 0.0 0.00 0.02 0.02 45 1020.2
20260503002802 74 0.0 0.0 0.00 0.02 0.02 44 1020.3
20260503002300 74 0.0 0.0 0.00 0.02 0.02 45 1020.3
20260503001758 74 0.0 0.0 0.00 0.02 0.02 45 1020.2
20260503001254 74 0.0 0.0 0.00 0.02 0.02 44 1020.1
20260503000752 74 0.0 0.0 0.00 0.02 0.02 43 1020.2
20260503000250 74 0.0 0.0 0.00 0.02 0.02 44 1020.2
20260502235746 75 0.0 0.0 0.00 0.02 0.02 42 1020.1
20260502235244 75 0.0 0.0 0.00 0.02 0.02 42 1020.0
20260502234742 75 0.0 1.0 0.00 0.02 0.02 41 1020.0
20260502234239 75 0.0 1.0 0.00 0.02 0.02 39 1020.0
20260502233736 76 0.0 1.0 0.00 0.02 0.02 39 1020.0
20260502233234 76 0.0 0.0 0.00 0.02 0.02 40 1020.0
20260502232732 76 0.0 0.0 0.00 0.02 0.02 39 1020.0
20260502232228 76 0.0 0.0 0.00 0.02 0.02 42 1020.1
20260502231726 77 0.0 0.0 0.00 0.02 0.02 40 1020.0
20260502231224 76 0.0 0.0 0.00 0.02 0.02 43 1020.0
20260502230722 76 0.0 0.0 0.00 0.02 0.02 44 1020.0
20260502230218 76 0.0 1.0 0.00 0.02 0.02 42 1020.0
20260502225716 76 0.0 1.0 0.00 0.13 0.02 42 1019.9
20260502225214 76 0.0 2.0 0.00 0.13 0.02 41 1020.0
20260502224712 76 0.0 4.0 0.00 0.13 0.02 41 1020.0
20260502224208 76 0.0 4.0 0.00 0.13 0.02 40 1020.0
20260502223706 77 0.0 1.0 0.00 0.13 0.02 44 1020.0
20260502223204 77 0.0 1.0 0.00 0.13 0.02 42 1020.0
20260502222702 77 0.0 0.0 0.00 0.13 0.02 41 1020.1
20260502222158 76 0.0 1.0 0.00 0.13 0.02 42 1020.1
20260502221656 76 0.0 1.0 0.00 0.13 0.02 44 1020.2
20260502221154 76 0.0 1.0 0.00 0.13 0.02 44 1020.1
20260502220652 76 0.0 1.0 0.00 0.13 0.02 40 1020.1
20260502220148 76 0.0 1.0 0.00 0.13 0.02 43 1020.1
20260502215646 76 0.0 2.0 0.00 0.24 0.02 46 1020.1
20260502215144 76 0.0 5.0 0.00 0.24 0.02 46 1020.2
20260502214642 76 0.0 5.0 0.00 0.24 0.02 45 1020.3
20260502214138 76 0.0 2.0 0.00 0.24 0.02 47 1020.3
20260502213636 75 0.0 1.0 0.00 0.24 0.02 48 1020.3
20260502213134 75 0.0 1.0 0.00 0.24 0.02 46 1020.4
20260502212632 75 0.0 4.0 0.00 0.24 0.02 45 1020.5
20260502212128 76 0.0 3.0 0.00 0.24 0.02 45 1020.6
20260502211626 76 0.0 3.0 0.00 0.24 0.02 46 1020.7
20260502211122 76 0.0 1.0 0.00 0.24 0.02 44 1020.8
20260502210620 76 0.0 1.0 0.00 0.24 0.02 45 1020.9
20260502210118 76 0.0 2.0 0.00 0.24 0.02 46 1020.9
20260502205616 76 0.0 2.0 0.00 0.27 0.02 45 1021.0
20260502205112 76 0.0 2.0 0.00 0.27 0.02 46 1021.1
20260502204610 76 0.0 2.0 0.00 0.27 0.02 43 1021.1
20260502204108 76 0.0 1.0 0.00 0.27 0.02 45 1021.2
20260502203606 75 0.0 3.0 0.00 0.27 0.02 45 1021.2
20260502203102 75 0.0 3.0 0.00 0.27 0.02 48 1021.3
20260502202600 75 0.0 2.0 0.00 0.27 0.02 43 1021.3
20260502202058 75 0.0 2.0 0.00 0.27 0.02 46 1021.3
20260502201556 75 0.0 4.0 0.00 0.27 0.02 45 1021.3
20260502201052 75 0.0 4.0 0.00 0.27 0.02 44 1021.5
20260502200550 75 0.0 5.0 0.00 0.27 0.02 41 1021.4
20260502200048 75 0.0 5.0 0.00 0.27 0.02 46 1021.4
20260502195546 74 0.0 5.0 0.00 0.34 0.02 45 1021.4
20260502195042 74 0.0 5.0 0.00 0.34 0.02 44 1021.5
20260502194540 74 0.0 3.0 0.00 0.34 0.02 45 1021.5
20260502194038 74 0.0 3.0 0.00 0.34 0.02 47 1021.5
20260502193536 74 0.0 3.0 0.00 0.34 0.02 45 1021.5
20260502193035 74 0.0 3.0 0.00 0.34 0.02 49 1021.5
20260502192531 74 13 1.0 3.0 0.00 0.34 0.02 46 1021.5
20260502192029 74 0.0 1.0 0.00 0.34 0.02 48 1021.6
20260502191527 73 0.0 1.0 0.00 0.34 0.02 53 1021.6
20260502191024 73 0.0 5.0 0.00 0.34 0.02 45 1021.6
20260502190521 73 0.0 5.0 0.00 0.34 0.02 45 1021.6
20260502190019 73 0.0 3.0 0.00 0.34 0.02 51 1021.6
20260502185517 73 0.0 6.0 0.00 0.70 0.02 48 1021.6
20260502185014 73 0.0 6.0 0.00 0.70 0.02 48 1021.7